contact:dominique.lefevre@mio.osupytheas.fr, maurice.libes@osupytheas.fr, didier.mallarino@osupytheas.fr
Project:EMSO http://www.emso-fr.org/EMSO-France
Depth: 2436.0 m
Title:EMSO Ligure Ouest : Data MII capteur AQUADOPP
Date,Latitude,Longitude,X_East,Y_North,Z_Up,Amplitude_X,Amplitude_Y,Amplitude_Z,Batterie,SoundSpeed,Heading,Pitch,Roll,Pressure,TIS,Speed,Direction
, degrees North, degrees East, m.s-1, m.s-1,m.s-1, 1, 1, 1, Volt, m.s-1, degree, degree, degree, dbar, degree_C, m.s-1, degree
2022-11-10T00:04:03,42.805,6.029,-0.008,-0.05,0.015,101.0,102.0,101.0,13.4,1505.2,317.3,-0.8,1.8,2471.187,13.28,0.05,189.1
2022-11-10T00:07:03,42.805,6.029,-0.017,-0.012,-0.019,102.0,102.0,101.0,13.4,1505.2,335.4,-0.8,1.8,2471.169,13.28,0.02,234.8
2022-11-10T00:10:03,42.805,6.029,-0.028,-0.026,-0.026,102.0,101.0,101.0,13.4,1505.2,328.9,-0.8,1.8,2471.149,13.28,0.038,227.1
2022-11-10T00:13:03,42.805,6.029,0.002,-0.035,-0.041,101.0,101.0,101.0,13.4,1505.2,327.0,-0.8,1.8,2471.169,13.28,0.035,176.7
2022-11-10T00:16:03,42.805,6.029,0.0,-0.036,-0.019,102.0,101.0,101.0,13.4,1505.2,318.9,-0.7,1.8,2471.152,13.29,0.036,180.0
2022-11-10T00:19:03,42.805,6.029,-0.017,-0.027,-0.039,101.0,102.0,101.0,13.4,1505.2,334.6,-0.8,1.8,2471.13,13.29,0.031,212.2
2022-11-10T00:22:03,42.805,6.029,-0.016,-0.034,-0.018,101.0,103.0,101.0,13.4,1505.2,325.7,-0.8,1.8,2471.145,13.29,0.037,205.2
2022-11-10T00:25:03,42.805,6.029,-0.004,-0.019,-0.007,103.0,101.0,101.0,13.4,1505.2,329.0,-0.8,1.8,2471.107,13.29,0.019,191.9
2022-11-10T00:28:03,42.805,6.029,0.013,-0.023,0.013,100.0,102.0,101.0,13.4,1505.2,322.0,-0.8,1.8,2471.14,13.29,0.026,150.5
2022-11-10T00:31:03,42.805,6.029,-0.014,-0.019,0.006,102.0,101.0,101.0,13.3,1505.2,324.1,-0.8,1.8,2471.112,13.29,0.023,216.4
2022-11-10T00:34:03,42.805,6.029,-0.017,-0.017,-0.013,101.0,102.0,101.0,13.4,1505.2,319.9,-0.8,1.8,2471.116,13.29,0.024,225.0
2022-11-10T00:37:03,42.805,6.029,-0.002,-0.036,-0.025,103.0,100.0,99.0,13.3,1505.2,327.0,-0.8,1.8,2471.088,13.29,0.036,183.2
2022-11-10T00:40:03,42.805,6.029,0.019,-0.038,0.011,101.0,100.0,101.0,13.4,1505.2,319.8,-0.8,1.8,2471.092,13.29,0.042,153.4
2022-11-10T00:43:03,42.805,6.029,-0.026,-0.047,-0.028,101.0,101.0,100.0,13.3,1505.2,323.3,-0.8,1.8,2471.134,13.29,0.053,209.0
2022-11-10T00:46:03,42.805,6.029,-0.026,-0.023,-0.012,102.0,101.0,101.0,13.4,1505.2,328.2,-0.8,1.8,2471.125,13.29,0.034,228.5
2022-11-10T00:49:03,42.805,6.029,-0.01,-0.04,-0.013,101.0,102.0,101.0,13.4,1505.2,322.1,-0.7,1.8,2471.127,13.29,0.041,194.0
2022-11-10T00:52:03,42.805,6.029,0.0,-0.033,-0.018,101.0,101.0,101.0,13.4,1505.2,317.8,-0.7,1.8,2471.071,13.29,0.033,180.0
2022-11-10T00:55:03,42.805,6.029,-0.007,-0.029,-0.005,102.0,102.0,100.0,13.4,1505.2,332.0,-0.8,1.8,2471.116,13.29,0.029,193.6
2022-11-10T00:58:03,42.805,6.029,-0.014,-0.024,0.014,102.0,102.0,100.0,13.3,1505.2,323.0,-0.7,1.9,2471.118,13.29,0.027,210.3
2022-11-10T01:04:03,42.805,6.029,-0.007,0.001,0.038,104.0,102.0,101.0,13.4,1505.2,325.2,-0.8,1.8,2471.143,13.28,0.007,278.1
2022-11-10T01:07:03,42.805,6.029,0.003,-0.027,0.002,102.0,103.0,101.0,13.4,1505.2,328.0,-0.8,1.8,2471.113,13.28,0.027,173.7
2022-11-10T01:10:04,42.805,6.029,-0.019,-0.036,-0.024,102.0,101.0,101.0,13.4,1505.2,327.7,-0.8,1.8,2471.135,13.28,0.04,207.8
2022-11-10T01:13:03,42.805,6.029,-0.001,-0.047,-0.027,101.0,102.0,100.0,13.4,1505.2,327.3,-0.7,1.8,2471.132,13.28,0.047,181.2
2022-11-10T01:16:03,42.805,6.029,-0.015,-0.038,-0.04,102.0,102.0,100.0,13.3,1505.2,318.5,-0.8,1.9,2471.139,13.29,0.04,201.5
2022-11-10T01:19:03,42.805,6.029,-0.01,-0.046,-0.019,101.0,102.0,101.0,13.4,1505.2,332.5,-0.7,1.8,2471.114,13.29,0.047,192.3
2022-11-10T01:22:03,42.805,6.029,-0.047,-0.021,-0.032,101.0,101.0,100.0,13.3,1505.2,335.4,-0.8,1.8,2471.109,13.29,0.051,245.9
2022-11-10T01:25:03,42.805,6.029,0.006,-0.031,0.005,102.0,101.0,101.0,13.4,1505.2,322.3,-0.7,1.9,2471.072,13.29,0.031,169.0
2022-11-10T01:28:03,42.805,6.029,-0.016,-0.041,-0.018,102.0,100.0,101.0,13.4,1505.2,329.0,-0.7,1.8,2471.108,13.29,0.044,201.3
2022-11-10T01:31:03,42.805,6.029,-0.004,-0.034,-0.024,101.0,101.0,101.0,13.4,1505.2,317.2,-0.8,1.8,2471.117,13.29,0.034,186.7
2022-11-10T01:34:03,42.805,6.029,0.002,-0.03,0.0,102.0,102.0,100.0,13.4,1505.2,318.7,-0.8,1.8,2471.093,13.29,0.03,176.2
2022-11-10T01:37:03,42.805,6.029,-0.001,-0.051,-0.04,101.0,101.0,101.0,13.4,1505.2,317.3,-0.7,1.8,2471.078,13.29,0.051,181.1
2022-11-10T01:40:03,42.805,6.029,-0.016,-0.018,-0.014,103.0,102.0,99.0,13.4,1505.2,326.1,-0.8,1.8,2471.099,13.29,0.024,221.6
2022-11-10T01:43:03,42.805,6.029,-0.014,-0.012,-0.018,101.0,101.0,101.0,13.4,1505.2,331.0,-0.8,1.8,2471.093,13.29,0.018,229.4
2022-11-10T01:46:03,42.805,6.029,-0.01,-0.023,-0.001,102.0,100.0,100.0,13.4,1505.2,328.5,-0.7,1.8,2471.091,13.29,0.025,203.5
2022-11-10T01:49:03,42.805,6.029,-0.03,-0.036,-0.019,102.0,101.0,100.0,13.3,1505.2,321.9,-0.8,1.8,2471.067,13.29,0.046,219.8
2022-11-10T01:52:03,42.805,6.029,-0.017,-0.032,0.001,102.0,102.0,100.0,13.4,1505.2,328.1,-0.7,1.8,2471.102,13.29,0.036,208.0
2022-11-10T01:55:03,42.805,6.029,-0.027,-0.01,0.016,101.0,102.0,102.0,13.4,1505.2,326.3,-0.8,1.8,2471.058,13.29,0.028,249.7
2022-11-10T01:58:03,42.805,6.029,-0.003,-0.037,0.0,102.0,101.0,101.0,13.4,1505.2,335.0,-0.8,1.8,2471.08,13.29,0.037,184.6
2022-11-10T02:04:03,42.805,6.029,-0.036,-0.035,-0.014,101.0,101.0,101.0,13.3,1505.2,333.7,-0.8,1.8,2471.13,13.28,0.05,225.8
2022-11-10T02:07:03,42.805,6.029,-0.028,-0.038,0.012,101.0,103.0,101.0,13.4,1505.2,324.6,-0.8,1.8,2471.096,13.29,0.047,216.4
2022-11-10T02:10:03,42.805,6.029,-0.025,-0.031,-0.016,100.0,102.0,101.0,13.3,1505.2,318.5,-0.8,1.8,2471.131,13.29,0.039,218.9
2022-11-10T02:13:03,42.805,6.029,-0.007,-0.047,-0.015,102.0,101.0,101.0,13.3,1505.2,323.4,-0.7,1.8,2471.081,13.29,0.047,188.5
2022-11-10T02:16:03,42.805,6.029,-0.01,-0.038,0.0,101.0,101.0,101.0,13.4,1505.2,315.4,-0.8,1.8,2471.122,13.29,0.039,194.7
2022-11-10T02:19:03,42.805,6.029,-0.01,-0.031,-0.012,103.0,101.0,99.0,13.3,1505.2,331.0,-0.8,1.8,2471.081,13.29,0.032,197.9
2022-11-10T02:22:03,42.805,6.029,-0.035,-0.022,0.002,100.0,102.0,101.0,13.4,1505.2,329.9,-0.8,1.9,2471.094,13.29,0.041,237.8
2022-11-10T02:25:03,42.805,6.029,-0.018,-0.029,0.024,102.0,101.0,100.0,13.3,1505.2,333.7,-0.8,1.8,2471.069,13.29,0.034,211.8
2022-11-10T02:28:03,42.805,6.029,-0.01,-0.027,0.017,102.0,100.0,100.0,13.4,1505.2,322.5,-0.8,1.8,2471.07,13.29,0.028,200.3
2022-11-10T02:31:03,42.805,6.029,-0.062,-0.033,-0.026,102.0,101.0,100.0,13.4,1505.2,321.2,-0.7,1.8,2471.079,13.29,0.07,242.0
2022-11-10T02:34:03,42.805,6.029,-0.022,-0.006,0.021,100.0,102.0,101.0,13.4,1505.2,333.4,-0.8,1.8,2471.061,13.29,0.022,254.7
2022-11-10T02:37:03,42.805,6.029,-0.037,-0.033,-0.008,102.0,102.0,101.0,13.3,1505.2,325.6,-0.7,1.8,2471.097,13.29,0.049,228.3
2022-11-10T02:40:03,42.805,6.029,0.007,-0.039,-0.013,102.0,102.0,100.0,13.4,1505.2,321.7,-0.8,1.8,2471.092,13.29,0.039,169.8
2022-11-10T02:43:03,42.805,6.029,-0.023,-0.01,-0.003,102.0,101.0,100.0,13.3,1505.2,334.4,-0.8,1.8,2471.08,13.29,0.025,246.5
2022-11-10T02:46:03,42.805,6.029,-0.036,-0.025,-0.015,103.0,101.0,100.0,13.4,1505.2,319.3,-0.8,1.8,2471.066,13.29,0.043,235.2
2022-11-10T02:49:03,42.805,6.029,-0.011,-0.028,0.016,101.0,101.0,101.0,13.4,1505.2,327.7,-0.7,1.8,2471.076,13.29,0.03,201.4
2022-11-10T02:52:03,42.805,6.029,-0.009,-0.029,-0.004,99.0,102.0,101.0,13.3,1505.2,328.0,-0.8,1.8,2471.105,13.29,0.03,197.2
2022-11-10T02:55:03,42.805,6.029,-0.001,-0.026,-0.015,101.0,101.0,101.0,13.4,1505.2,322.9,-0.8,1.8,2471.075,13.29,0.026,182.2
2022-11-10T02:58:03,42.805,6.029,-0.019,-0.018,0.006,101.0,100.0,100.0,13.4,1505.2,328.4,-0.8,1.8,2471.055,13.29,0.026,226.5
2022-11-10T03:04:03,42.805,6.029,-0.015,-0.024,-0.02,101.0,102.0,100.0,13.4,1505.2,319.4,-0.8,1.8,2471.152,13.28,0.028,212.0
2022-11-10T03:07:03,42.805,6.029,-0.043,-0.03,-0.01,99.0,101.0,101.0,13.4,1505.2,327.8,-0.8,1.8,2471.157,13.28,0.052,235.1
2022-11-10T03:10:03,42.805,6.029,-0.022,-0.017,0.04,101.0,101.0,100.0,13.4,1505.2,323.5,-0.8,1.8,2471.112,13.29,0.027,232.3
2022-11-10T03:13:03,42.805,6.029,-0.025,-0.015,0.012,100.0,101.0,99.0,13.3,1505.2,329.9,-0.8,1.8,2471.129,13.29,0.029,239.0
2022-11-10T03:16:03,42.805,6.029,-0.021,-0.018,0.013,102.0,100.0,101.0,13.3,1505.2,325.7,-0.7,1.8,2471.112,13.29,0.027,229.4
2022-11-10T03:19:03,42.805,6.029,-0.033,-0.032,-0.007,100.0,101.0,100.0,13.4,1505.2,325.9,-0.7,1.8,2471.111,13.29,0.045,225.9
2022-11-10T03:22:03,42.805,6.029,-0.023,-0.033,0.008,101.0,101.0,100.0,13.3,1505.2,332.2,-0.7,1.8,2471.093,13.29,0.04,214.9
2022-11-10T03:25:03,42.805,6.029,-0.014,-0.018,-0.008,101.0,100.0,100.0,13.4,1505.2,329.2,-0.8,1.8,2471.083,13.29,0.022,217.9
2022-11-10T03:28:03,42.805,6.029,-0.025,-0.016,0.01,101.0,101.0,101.0,13.4,1505.2,323.5,-0.8,1.8,2471.075,13.29,0.029,237.4
2022-11-10T03:31:03,42.805,6.029,-0.004,-0.022,0.02,101.0,100.0,101.0,13.4,1505.2,335.4,-0.7,1.8,2471.094,13.29,0.022,190.3
2022-11-10T03:34:03,42.805,6.029,-0.012,-0.026,0.02,101.0,101.0,100.0,13.4,1505.2,323.5,-0.7,1.8,2471.121,13.29,0.028,204.8
2022-11-10T03:37:03,42.805,6.029,-0.031,-0.033,0.003,102.0,101.0,100.0,13.3,1505.2,319.5,-0.8,1.9,2471.101,13.29,0.045,223.2
2022-11-10T03:40:03,42.805,6.029,0.005,-0.016,0.031,100.0,102.0,100.0,13.3,1505.2,318.5,-0.8,1.8,2471.129,13.29,0.016,162.6
2022-11-10T03:43:03,42.805,6.029,-0.052,-0.014,-0.015,101.0,100.0,100.0,13.3,1505.2,323.7,-0.8,1.8,2471.091,13.29,0.053,254.9
2022-11-10T03:46:03,42.805,6.029,-0.021,-0.03,-0.019,101.0,101.0,100.0,13.3,1505.2,324.9,-0.8,1.8,2471.11,13.29,0.036,215.0
2022-11-10T03:49:03,42.805,6.029,-0.019,-0.02,0.002,100.0,100.0,101.0,13.4,1505.2,321.5,-0.8,1.8,2471.128,13.29,0.027,223.5
2022-11-10T03:52:03,42.805,6.029,-0.015,-0.048,-0.024,101.0,101.0,100.0,13.3,1505.2,330.8,-0.8,1.8,2471.105,13.29,0.05,197.4
2022-11-10T03:55:03,42.805,6.029,-0.021,-0.022,-0.005,99.0,99.0,101.0,13.4,1505.2,319.3,-0.8,1.8,2471.12,13.29,0.03,223.7
2022-11-10T03:58:03,42.805,6.029,-0.018,-0.022,-0.016,100.0,102.0,100.0,13.4,1505.2,332.3,-0.8,1.8,2471.129,13.29,0.028,219.3
2022-11-10T04:04:03,42.805,6.029,0.007,-0.024,0.021,100.0,100.0,100.0,13.4,1505.2,323.2,-0.8,1.8,2471.157,13.28,0.025,163.7
2022-11-10T04:07:03,42.805,6.029,-0.009,-0.026,0.0,101.0,101.0,100.0,13.4,1505.2,323.3,-0.8,1.8,2471.179,13.28,0.027,199.1
2022-11-10T04:10:03,42.805,6.029,-0.024,-0.026,0.011,101.0,101.0,99.0,13.3,1505.2,323.5,-0.8,1.8,2471.189,13.29,0.035,222.7
2022-11-10T04:13:03,42.805,6.029,-0.04,-0.015,-0.031,101.0,101.0,100.0,13.3,1505.2,331.5,-0.8,1.8,2471.169,13.29,0.042,249.4
2022-11-10T04:16:03,42.805,6.029,0.002,-0.033,-0.019,100.0,101.0,100.0,13.4,1505.2,319.2,-0.7,1.8,2471.147,13.29,0.033,176.5
2022-11-10T04:19:03,42.805,6.029,-0.025,-0.022,0.013,99.0,101.0,101.0,13.4,1505.2,334.1,-0.7,1.8,2471.168,13.29,0.033,228.7
2022-11-10T04:22:03,42.805,6.029,-0.028,-0.024,-0.021,101.0,102.0,100.0,13.4,1505.2,321.4,-0.8,1.8,2471.144,13.29,0.036,229.4
2022-11-10T04:25:03,42.805,6.029,-0.005,-0.021,-0.01,102.0,100.0,100.0,13.4,1505.2,330.2,-0.7,1.8,2471.163,13.29,0.021,193.4
2022-11-10T04:28:03,42.805,6.029,-0.015,-0.027,-0.014,100.0,100.0,100.0,13.3,1505.2,322.0,-0.8,1.8,2471.141,13.29,0.03,209.1
2022-11-10T04:31:03,42.805,6.029,-0.013,-0.021,0.015,101.0,100.0,100.0,13.3,1505.2,320.5,-0.8,1.8,2471.14,13.29,0.024,211.8
2022-11-10T04:34:03,42.805,6.029,-0.022,-0.019,-0.023,101.0,101.0,100.0,13.4,1505.2,321.3,-0.8,1.8,2471.162,13.29,0.029,229.2
2022-11-10T04:37:03,42.805,6.029,-0.009,-0.02,0.053,101.0,101.0,99.0,13.4,1505.2,321.1,-0.8,1.8,2471.124,13.29,0.021,204.2
2022-11-10T04:40:03,42.805,6.029,-0.022,-0.034,-0.034,101.0,100.0,100.0,13.4,1505.2,323.1,-0.8,1.8,2471.162,13.29,0.04,212.9
2022-11-10T04:43:03,42.805,6.029,-0.056,-0.036,-0.034,100.0,101.0,100.0,13.4,1505.2,333.1,-0.8,1.8,2471.157,13.29,0.066,237.3
2022-11-10T04:46:03,42.805,6.029,-0.008,-0.018,-0.003,100.0,101.0,101.0,13.4,1505.2,322.1,-0.8,1.8,2471.181,13.29,0.019,204.0
2022-11-10T04:49:03,42.805,6.029,-0.024,-0.022,0.029,99.0,101.0,100.0,13.3,1505.2,329.1,-0.7,1.8,2471.161,13.29,0.032,227.5
2022-11-10T04:52:03,42.805,6.029,-0.017,-0.034,-0.038,100.0,100.0,100.0,13.3,1505.2,323.8,-0.7,1.8,2471.125,13.29,0.038,206.6
2022-11-10T04:55:03,42.805,6.029,-0.019,-0.027,0.007,100.0,100.0,100.0,13.3,1505.2,320.7,-0.7,1.8,2471.177,13.29,0.033,215.1
2022-11-10T04:58:03,42.805,6.029,-0.02,-0.029,-0.023,100.0,100.0,101.0,13.4,1505.2,334.1,-0.8,1.8,2471.166,13.29,0.035,214.6
2022-11-10T05:04:03,42.805,6.029,-0.02,-0.009,0.025,101.0,99.0,99.0,13.4,1505.2,334.0,-0.8,1.8,2471.192,13.28,0.021,245.8
2022-11-10T05:07:03,42.805,6.029,-0.005,-0.023,0.018,100.0,99.0,100.0,13.4,1505.2,326.7,-0.8,1.8,2471.209,13.29,0.023,192.3
2022-11-10T05:10:03,42.805,6.029,0.0,-0.007,0.043,101.0,100.0,99.0,13.4,1505.2,329.8,-0.8,1.8,2471.222,13.29,0.007,180.0
2022-11-10T05:13:03,42.805,6.029,0.009,-0.032,0.025,100.0,100.0,100.0,13.4,1505.2,317.2,-0.8,1.8,2471.222,13.29,0.033,164.3
2022-11-10T05:16:03,42.805,6.029,-0.009,-0.012,0.004,100.0,100.0,101.0,13.3,1505.2,333.0,-0.8,1.8,2471.21,13.29,0.015,216.9
2022-11-10T05:19:03,42.805,6.029,-0.021,-0.033,-0.013,102.0,100.0,99.0,13.3,1505.2,326.1,-0.7,1.8,2471.231,13.29,0.039,212.5
2022-11-10T05:22:03,42.805,6.029,-0.027,-0.022,0.001,100.0,102.0,99.0,13.3,1505.2,332.7,-0.8,1.8,2471.254,13.29,0.034,230.8
2022-11-10T05:25:03,42.805,6.029,-0.02,-0.037,-0.009,100.0,101.0,101.0,13.4,1505.2,319.2,-0.7,1.8,2471.227,13.29,0.042,208.4
2022-11-10T05:28:03,42.805,6.029,-0.034,-0.03,-0.032,99.0,100.0,101.0,13.3,1505.2,327.9,-0.8,1.8,2471.214,13.29,0.045,228.6
2022-11-10T05:31:03,42.805,6.029,-0.015,-0.036,-0.014,99.0,102.0,100.0,13.4,1505.2,323.3,-0.8,1.8,2471.229,13.29,0.039,202.6
2022-11-10T05:34:03,42.805,6.029,-0.006,-0.007,0.01,101.0,101.0,100.0,13.3,1505.2,335.1,-0.8,1.8,2471.232,13.29,0.009,220.6
2022-11-10T05:37:03,42.805,6.029,-0.027,-0.02,-0.02,101.0,101.0,100.0,13.4,1505.2,329.7,-0.7,1.8,2471.205,13.29,0.033,233.5
2022-11-10T05:40:03,42.805,6.029,-0.017,-0.028,-0.01,100.0,100.0,100.0,13.4,1505.2,323.0,-0.8,1.8,2471.212,13.29,0.032,211.3
2022-11-10T05:43:03,42.805,6.029,-0.025,-0.039,-0.019,101.0,100.0,100.0,13.4,1505.2,328.3,-0.8,1.8,2471.228,13.29,0.046,212.7
2022-11-10T05:46:03,42.805,6.029,0.017,-0.022,0.041,100.0,101.0,102.0,13.4,1505.2,324.4,-0.7,1.8,2471.258,13.29,0.027,142.3
2022-11-10T05:49:03,42.805,6.029,-0.009,-0.02,-0.005,101.0,101.0,100.0,13.4,1505.2,321.5,-0.7,1.8,2471.265,13.29,0.021,204.2
2022-11-10T05:52:03,42.805,6.029,-0.013,-0.033,-0.029,101.0,100.0,100.0,13.4,1505.2,322.9,-0.7,1.8,2471.236,13.29,0.035,201.5
2022-11-10T05:55:03,42.805,6.029,-0.009,-0.032,-0.041,101.0,100.0,100.0,13.4,1505.2,321.1,-0.7,1.8,2471.283,13.29,0.033,195.7
2022-11-10T05:58:03,42.805,6.029,-0.017,-0.02,-0.019,101.0,100.0,100.0,13.3,1505.2,326.8,-0.8,1.8,2471.219,13.29,0.026,220.4
2022-11-10T06:04:03,42.805,6.029,-0.021,-0.014,0.006,101.0,100.0,101.0,13.3,1505.2,335.4,-0.8,1.8,2471.332,13.28,0.025,236.3
2022-11-10T06:07:03,42.805,6.029,-0.031,-0.026,0.009,103.0,100.0,99.0,13.4,1505.2,325.6,-0.8,1.8,2471.274,13.29,0.04,230.0
2022-11-10T06:10:03,42.805,6.029,-0.008,-0.025,0.001,102.0,101.0,100.0,13.4,1505.2,330.1,-0.7,1.8,2471.308,13.29,0.026,197.7
2022-11-10T06:13:03,42.805,6.029,-0.01,-0.038,-0.019,101.0,100.0,101.0,13.4,1505.2,328.2,-0.8,1.8,2471.277,13.29,0.039,194.7
2022-11-10T06:16:03,42.805,6.029,-0.021,-0.012,-0.005,100.0,100.0,102.0,13.4,1505.2,320.7,-0.8,1.8,2471.273,13.29,0.024,240.3
2022-11-10T06:19:03,42.805,6.029,-0.026,-0.023,0.021,102.0,101.0,99.0,13.4,1505.2,325.0,-0.8,1.8,2471.271,13.29,0.034,228.5
2022-11-10T06:22:03,42.805,6.029,0.004,-0.028,-0.026,102.0,101.0,101.0,13.4,1505.2,333.4,-0.8,1.8,2471.299,13.29,0.028,171.9
2022-11-10T06:25:03,42.805,6.029,-0.043,-0.002,-0.003,100.0,101.0,101.0,13.4,1505.2,326.6,-0.8,1.8,2471.296,13.29,0.043,267.3
2022-11-10T06:28:03,42.805,6.029,-0.04,-0.021,-0.01,100.0,101.0,100.0,13.3,1505.2,330.8,-0.8,1.8,2471.292,13.29,0.045,242.3
2022-11-10T06:31:03,42.805,6.029,-0.052,-0.022,-0.025,101.0,101.0,100.0,13.4,1505.2,329.1,-0.8,1.8,2471.273,13.29,0.056,247.1
2022-11-10T06:34:03,42.805,6.029,-0.012,-0.019,0.004,100.0,101.0,100.0,13.3,1505.2,326.4,-0.7,1.8,2471.292,13.29,0.022,212.3
2022-11-10T06:37:03,42.805,6.029,-0.027,-0.043,-0.033,101.0,101.0,100.0,13.4,1505.2,327.3,-0.7,1.8,2471.272,13.29,0.05,212.1
2022-11-10T06:40:03,42.805,6.029,-0.025,-0.018,0.012,101.0,101.0,100.0,13.3,1505.2,319.8,-0.8,1.8,2471.304,13.29,0.03,234.2
2022-11-10T06:43:03,42.805,6.029,-0.028,-0.042,-0.03,100.0,100.0,100.0,13.4,1505.2,322.6,-0.8,1.8,2471.296,13.29,0.05,213.7
2022-11-10T06:46:03,42.805,6.029,-0.026,-0.001,0.023,100.0,101.0,101.0,13.4,1505.2,320.8,-0.8,1.8,2471.324,13.29,0.026,267.8
2022-11-10T06:49:03,42.805,6.029,-0.019,-0.017,-0.005,101.0,99.0,100.0,13.4,1505.2,335.8,-0.7,1.8,2471.263,13.29,0.025,228.2
2022-11-10T06:52:03,42.805,6.029,-0.017,-0.011,-0.004,101.0,100.0,100.0,13.4,1505.2,331.3,-0.8,1.8,2471.278,13.29,0.02,237.1
2022-11-10T06:55:03,42.805,6.029,-0.006,-0.015,0.011,101.0,101.0,100.0,13.3,1505.2,321.5,-0.8,1.8,2471.293,13.29,0.016,201.8
2022-11-10T06:58:03,42.805,6.029,-0.006,-0.016,0.003,101.0,100.0,100.0,13.4,1505.2,323.0,-0.8,1.8,2471.301,13.29,0.017,200.6
2022-11-10T07:04:03,42.805,6.029,-0.017,-0.017,0.009,101.0,101.0,100.0,13.4,1505.2,329.6,-0.8,1.8,2471.347,13.29,0.024,225.0
2022-11-10T07:07:03,42.805,6.029,-0.004,-0.016,0.009,100.0,101.0,101.0,13.4,1505.2,320.8,-0.8,1.8,2471.39,13.29,0.016,194.0
2022-11-10T07:10:03,42.805,6.029,-0.032,-0.02,0.015,101.0,99.0,99.0,13.4,1505.2,318.3,-0.8,1.8,2471.328,13.29,0.037,238.0
2022-11-10T07:13:03,42.805,6.029,-0.039,-0.018,-0.01,99.0,101.0,101.0,13.3,1505.2,335.4,-0.8,1.8,2471.345,13.29,0.042,245.2
2022-11-10T07:16:03,42.805,6.029,-0.006,-0.042,-0.034,100.0,100.0,100.0,13.4,1505.2,329.1,-0.7,1.8,2471.313,13.29,0.042,188.1
2022-11-10T07:19:03,42.805,6.029,-0.021,-0.013,0.028,101.0,101.0,100.0,13.3,1505.2,330.8,-0.8,1.8,2471.3,13.29,0.024,238.2
2022-11-10T07:22:03,42.805,6.029,-0.026,-0.016,0.004,98.0,102.0,101.0,13.4,1505.2,323.2,-0.8,1.8,2471.337,13.29,0.03,238.4
2022-11-10T07:25:03,42.805,6.029,-0.013,-0.024,0.0,101.0,101.0,100.0,13.3,1505.2,321.4,-0.7,1.8,2471.294,13.29,0.027,208.4
2022-11-10T07:28:03,42.805,6.029,-0.011,-0.036,-0.003,100.0,102.0,100.0,13.3,1505.2,329.9,-0.7,1.8,2471.298,13.29,0.037,197.0
2022-11-10T07:31:03,42.805,6.029,-0.001,-0.041,-0.015,102.0,100.0,101.0,13.4,1505.2,332.7,-0.8,1.8,2471.323,13.29,0.041,181.4
2022-11-10T07:34:03,42.805,6.029,-0.027,-0.013,0.002,100.0,101.0,101.0,13.4,1505.2,324.1,-0.8,1.8,2471.327,13.29,0.029,244.3
2022-11-10T07:37:03,42.805,6.029,-0.012,-0.02,-0.003,99.0,101.0,101.0,13.4,1505.2,317.2,-0.7,1.8,2471.34,13.29,0.023,211.0
2022-11-10T07:40:03,42.805,6.029,-0.037,0.006,0.02,101.0,100.0,100.0,13.3,1505.2,324.6,-0.7,1.8,2471.323,13.29,0.037,279.2
2022-11-10T07:43:03,42.805,6.029,-0.022,-0.02,-0.009,101.0,102.0,100.0,13.4,1505.2,332.7,-0.8,1.8,2471.331,13.29,0.029,227.7
2022-11-10T07:46:03,42.805,6.029,-0.036,-0.021,-0.015,102.0,101.0,101.0,13.4,1505.2,331.0,-0.8,1.8,2471.347,13.29,0.041,239.7
2022-11-10T07:49:03,42.805,6.029,-0.004,-0.018,0.026,102.0,99.0,102.0,13.3,1505.2,328.7,-0.8,1.8,2471.325,13.29,0.018,192.5
2022-11-10T07:52:03,42.805,6.029,-0.009,-0.015,0.007,101.0,100.0,100.0,13.3,1505.2,335.7,-0.7,1.8,2471.342,13.29,0.017,211.0
2022-11-10T07:55:03,42.805,6.029,-0.02,-0.02,-0.014,101.0,101.0,101.0,13.4,1505.2,330.8,-0.8,1.8,2471.364,13.29,0.028,225.0
2022-11-10T07:58:03,42.805,6.029,-0.011,-0.014,0.007,101.0,101.0,101.0,13.4,1505.2,318.4,-0.8,1.8,2471.336,13.29,0.017,218.2
2022-11-10T08:04:03,42.805,6.029,-0.009,-0.031,0.012,101.0,102.0,101.0,13.4,1505.2,317.4,-0.8,1.8,2471.374,13.29,0.032,196.2
2022-11-10T08:07:03,42.805,6.029,-0.037,-0.02,0.0,101.0,102.0,100.0,13.4,1505.2,320.8,-0.8,1.8,2471.392,13.29,0.042,241.6
2022-11-10T08:10:03,42.805,6.029,-0.046,-0.002,0.028,101.0,101.0,100.0,13.4,1505.2,323.2,-0.7,1.8,2471.324,13.29,0.046,267.5
2022-11-10T08:13:03,42.805,6.029,-0.035,-0.01,-0.002,101.0,102.0,101.0,13.4,1505.2,318.5,-0.8,1.8,2471.365,13.29,0.036,254.1
2022-11-10T08:16:03,42.805,6.029,-0.016,-0.015,-0.002,101.0,101.0,101.0,13.4,1505.2,323.5,-0.8,1.8,2471.365,13.29,0.021,226.9
2022-11-10T08:19:03,42.805,6.029,-0.003,-0.023,0.007,102.0,101.0,100.0,13.4,1505.2,329.0,-0.8,1.8,2471.348,13.29,0.023,187.4
2022-11-10T08:22:03,42.805,6.029,0.003,-0.015,0.027,102.0,103.0,100.0,13.4,1505.2,329.3,-0.8,1.8,2471.371,13.29,0.015,168.7
2022-11-10T08:25:03,42.805,6.029,-0.019,-0.026,-0.024,102.0,101.0,101.0,13.4,1505.2,333.7,-0.8,1.8,2471.317,13.29,0.032,216.2
2022-11-10T08:28:03,42.805,6.029,-0.046,-0.026,-0.017,102.0,101.0,101.0,13.4,1505.2,322.0,-0.8,1.8,2471.309,13.29,0.052,240.5
2022-11-10T08:31:03,42.805,6.029,0.012,-0.029,-0.021,102.0,100.0,101.0,13.4,1505.2,317.8,-0.8,1.8,2471.31,13.29,0.031,157.5
2022-11-10T08:34:03,42.805,6.029,-0.025,0.0,0.0,99.0,101.0,102.0,13.4,1505.2,332.3,-0.8,1.8,2471.35,13.29,0.025,270.0
2022-11-10T08:37:03,42.805,6.029,-0.016,-0.02,0.027,102.0,101.0,100.0,13.4,1505.2,327.9,-0.7,1.8,2471.283,13.29,0.025,218.7
2022-11-10T08:40:03,42.805,6.029,-0.003,-0.029,-0.036,101.0,101.0,100.0,13.4,1505.2,328.3,-0.8,1.8,2471.36,13.29,0.029,185.9
2022-11-10T08:43:03,42.805,6.029,-0.015,-0.007,0.0,101.0,101.0,101.0,13.4,1505.2,328.2,-0.8,1.8,2471.34,13.29,0.016,245.0
2022-11-10T08:46:03,42.805,6.029,-0.019,-0.015,0.022,102.0,102.0,100.0,13.4,1505.2,325.2,-0.7,1.9,2471.295,13.29,0.024,231.7
2022-11-10T08:49:03,42.805,6.029,-0.015,-0.017,0.001,102.0,101.0,100.0,13.4,1505.2,329.4,-0.8,1.8,2471.306,13.29,0.022,221.4
2022-11-10T08:52:03,42.805,6.029,-0.009,-0.039,0.0,102.0,102.0,100.0,13.4,1505.2,324.8,-0.8,1.8,2471.333,13.29,0.04,193.0
2022-11-10T08:55:03,42.805,6.029,-0.016,-0.021,0.024,101.0,101.0,100.0,13.4,1505.2,318.8,-0.7,1.8,2471.309,13.29,0.026,217.3
2022-11-10T08:58:03,42.805,6.029,-0.009,-0.031,0.005,100.0,101.0,102.0,13.4,1505.2,323.2,-0.8,1.8,2471.313,13.29,0.032,196.2
2022-11-10T09:04:03,42.805,6.029,-0.019,-0.022,0.012,101.0,101.0,100.0,13.3,1505.2,335.6,-0.7,1.8,2471.399,13.29,0.029,220.8
2022-11-10T09:07:03,42.805,6.029,0.004,-0.015,-0.001,101.0,101.0,101.0,13.4,1505.2,321.3,-0.8,1.8,2471.355,13.29,0.015,165.1
2022-11-10T09:10:03,42.805,6.029,-0.005,-0.026,-0.007,101.0,103.0,100.0,13.4,1505.2,322.0,-0.8,1.8,2471.358,13.29,0.026,190.9
2022-11-10T09:13:03,42.805,6.029,0.011,-0.026,-0.009,102.0,101.0,101.0,13.4,1505.2,321.5,-0.8,1.8,2471.333,13.29,0.028,157.1
2022-11-10T09:16:03,42.805,6.029,-0.028,-0.019,-0.011,103.0,102.0,100.0,13.3,1505.2,318.5,-0.7,1.8,2471.331,13.29,0.033,235.8
2022-11-10T09:19:03,42.805,6.029,0.0,-0.042,0.002,104.0,103.0,99.0,13.4,1505.2,324.4,-0.7,1.8,2471.339,13.29,0.042,180.0
2022-11-10T09:22:03,42.805,6.029,-0.003,-0.007,-0.003,101.0,102.0,99.0,13.3,1505.2,321.1,-0.8,1.8,2471.333,13.29,0.007,203.2
2022-11-10T09:25:03,42.805,6.029,-0.01,-0.037,-0.021,102.0,101.0,100.0,13.3,1505.2,327.9,-0.8,1.8,2471.343,13.29,0.038,195.1
2022-11-10T09:28:03,42.805,6.029,-0.006,-0.02,-0.001,102.0,101.0,100.0,13.4,1505.2,316.8,-0.8,1.8,2471.307,13.29,0.02,196.7
2022-11-10T09:31:03,42.805,6.029,-0.017,-0.024,-0.009,101.0,101.0,101.0,13.4,1505.2,325.2,-0.8,1.8,2471.322,13.29,0.029,215.3
2022-11-10T09:34:03,42.805,6.029,-0.012,-0.03,0.01,101.0,102.0,101.0,13.4,1505.2,330.4,-0.8,1.8,2471.333,13.29,0.032,201.8
2022-11-10T09:37:03,42.805,6.029,0.004,-0.025,-0.003,102.0,101.0,100.0,13.4,1505.2,325.5,-0.8,1.8,2471.303,13.29,0.025,170.9
2022-11-10T09:40:03,42.805,6.029,-0.004,-0.027,0.007,102.0,101.0,100.0,13.3,1505.2,317.3,-0.8,1.8,2471.308,13.29,0.027,188.4
2022-11-10T09:43:03,42.805,6.029,-0.021,-0.019,0.001,102.0,102.0,99.0,13.4,1505.2,334.0,-0.8,1.8,2471.343,13.29,0.028,227.9
2022-11-10T09:46:03,42.805,6.029,-0.028,-0.019,-0.005,102.0,102.0,101.0,13.4,1505.2,326.8,-0.8,1.8,2471.308,13.29,0.033,235.8
2022-11-10T09:49:03,42.805,6.029,-0.001,-0.037,0.005,102.0,100.0,100.0,13.4,1505.2,334.8,-0.7,1.8,2471.316,13.29,0.037,181.5
2022-11-10T09:52:03,42.805,6.029,-0.015,-0.031,-0.057,101.0,102.0,101.0,13.4,1505.2,317.2,-0.8,1.8,2471.321,13.29,0.034,205.8